Home > Time Zones > World Clock > Weather > France > Caen > Past weeks

Flag for France Weather past 2 weeks in Caen, France

Now
64 °F

Clear.


Feels Like: 64 °F
Forecast: 45 / 63 °F
Wind: 3 mph from North

Location: Caen Airport

Current Time: Sep 23, 2014 at 4:24:50 PM

Latest Report: Sep 23, 2014 at 4:00 PM


Visibility: 5 mi

Pressure: 30.12 "Hg

Humidity: 52%

Dew point: 46 °F

Location of CaenLocation

Historic Weather in Caen — Graph

°F

Caen temperature yesterday

Maximum temperature yesterday: 63 °F (at 12:30 PM)
Minimum temperature yesterday: 48 °F (at 10:30 PM)
Average temperature yesterday: 56 °F

Past Weeks' High & Low Weather Summary

 TemperatureHumidityPressure
High81 °F (Sep 17, 3:30 PM)100% (Sep 12, 8:00 AM)30.30 "Hg (Sep 12, 8:00 AM)
Low43 °F (Sep 23, 6:00 AM)42% (Sep 16, 4:30 PM)29.71 "Hg (Sep 17, 3:00 PM)
Average63 °F79%30.03 "Hg
* Reported Sep 8 3:00 PM — Sep 23 3:30 PM, Caen, Weather by CustomWeather, © 2014

Note: Actual official high and low records may vary slightly from our data, if they occured in-between our weather recording intervals... More about our weather records

Advertising

Caen weather history for previous 24 hours

 ConditionsComfort  
Time TempWeatherWind HumidityBarometerVisibility
3:30 PM
Sep 23
64 °FClear.3 mph52%30.12 "Hg5 mi
3:00 PM64 °FClear.6 mph49%30.15 "Hg5 mi
2:30 PM63 °FClear.7 mph52%30.15 "Hg4 mi
2:00 PM63 °FClear.8 mph56%30.15 "Hg5 mi
1:30 PM63 °FClear.7 mph56%30.18 "Hg4 mi
1:00 PM61 °FClear.6 mph59%30.18 "Hg4 mi
12:30 PM61 °FHaze.3 mph63%30.18 "Hg3 mi
12:00 PM59 °FHaze.2 mph68%30.18 "Hg3 mi
11:30 AM59 °FHaze.1 mph68%30.21 "Hg3 mi
11:00 AM57 °FFog.No wind67%30.21 "Hg3 mi
10:30 AM54 °FFog.3 mph82%30.21 "Hg2 mi
10:00 AM52 °FFog.3 mph88%30.21 "Hg2 mi
9:30 AM48 °FFog.6 mph100%30.21 "Hg1 mi
9:00 AM46 °FFog.5 mph100%30.21 "Hg1 mi
8:30 AM45 °FFog.3 mph93%30.21 "Hg1 mi
8:00 AM43 °FFog.3 mph100%30.21 "Hg1 mi
7:30 AM43 °FFog.6 mph93%30.18 "Hg1 mi
7:00 AM43 °FFog.5 mph100%30.18 "Hg1 mi
6:30 AM43 °FFog.6 mph93%30.18 "Hg1 mi
6:00 AM43 °FFog.3 mph93%30.18 "Hg1 mi
5:30 AM45 °FFog.2 mph93%30.18 "Hg1 mi
5:00 AM45 °FFog.2 mph93%30.18 "Hg1 mi
4:30 AM45 °FFog.2 mph100%30.18 "Hg1 mi
4:00 AM45 °FFog.3 mph93%30.18 "Hg1 mi
3:30 AM45 °FFog.5 mph93%30.21 "Hg1 mi
3:00 AM46 °FFog.6 mph93%30.21 "Hg1 mi
2:30 AM46 °FFog.5 mph93%30.21 "Hg2 mi
2:00 AM46 °FFog.5 mph93%30.21 "Hg2 mi
1:30 AM48 °FFog.6 mph87%30.24 "Hg2 mi
1:00 AM46 °FFog.5 mph87%30.24 "Hg2 mi
12:30 AM50 °FFog.3 mph88%30.24 "Hg2 mi
12:00 AM48 °FFog.1 mph94%30.27 "Hg2 mi
11:30 PM
Sep 22
48 °FFog.2 mph94%30.27 "Hg2 mi
11:00 PM48 °FFog.No wind87%30.27 "Hg2 mi
10:30 PM48 °FFog.3 mph87%30.27 "Hg2 mi
10:00 PM50 °FFog.2 mph88%30.27 "Hg2 mi
9:30 PM50 °FFog.2 mph82%30.27 "Hg3 mi
9:00 PM52 °FFog.3 mph82%30.27 "Hg3 mi
8:30 PM55 °FFog.2 mph72%30.27 "Hg3 mi
8:00 PM55 °FFog.3 mph72%30.24 "Hg3 mi
7:30 PM57 °FFog.5 mph67%30.24 "Hg3 mi
7:00 PM57 °FClear.7 mph72%30.24 "Hg4 mi
6:30 PM59 °FClear.7 mph68%30.24 "Hg4 mi
6:00 PM59 °FPassing clouds.7 mph63%30.24 "Hg5 mi
5:30 PM59 °FPassing clouds.8 mph63%30.24 "Hg6 mi
5:00 PM59 °FPartly sunny.10 mph63%30.27 "Hg6 mi
4:30 PM61 °FPassing clouds.10 mph63%30.27 "HgN/A
4:00 PM61 °FScattered clouds.9 mph63%30.27 "HgN/A
Weather by CustomWeather, © 2014

See weather overviewHow to use our weather pages